SINAH 1

Last updated on Sun Jul 06 2025 00:02:27 GMT+0000 (Coordinated Universal Time)

1 28893U 05043D 25186.59606057 .00000282 00000+0 63550-4 0 9996 2 28893 98.2403 314.9628 0013237 283.1434 76.8290 14.63736305 49814
UTC large
Height (km)
Speed (km/s)
/
Latitude / Longitude
Inclination (degrees)
Orbital Period (minutes)
Azimuth
Elevation
Range (km)
Doppler Factor

Next 0 passes for location: London (51.5072 / 0.1276)

Sorry there are no passes over London.